#timestamp,LO_Frequency,Hit,StdDev 
1696399215.2,286047004.7,N
1696399235.1,286047004.5,N
1696399236.0,286047004.5,N
1696399255.8,286047005.0,N
1696399275.6,286047007.5,Y
1696399295.5,286047003.6,P
1696399315.3,286047003.4,P
1696399335.2,286047003.0,P
1696399355.9,286047004.9,Y
1696399375.7,286047004.4,P
1696399395.6,286047002.1,P
1696399415.4,286047002.7,N
1696399435.3,286047002.7,Y
1696399455.1,286046998.3,P
1696399456.0,286046998.3,N
1696399475.8,286046999.0,N
1696399495.7,286047000.3,N
1696399515.5,286047000.8,N
1696399535.3,286046998.2,N
1696399555.2,286047000.5,N
1696399575.0,286047000.4,N
1696399575.9,286047000.4,N
1696399595.8,286047000.1,N
1696399615.6,286047001.2,N
1696399635.4,286046998.2,N
1696399655.3,286046998.4,N
1696399675.1,286046998.3,N
1696399695.8,286047001.1,N
1696399715.7,286047000.8,N
1696399735.5,286047000.2,N
1696399755.4,286047000.0,N
1696399775.2,286047000.2,N
1696399795.0,286047002.1,N
1696399795.9,286047002.1,N
1696399815.8,286047002.4,N
1696399835.6,286047004.3,N
1696399855.4,286047001.6,N
1696399875.3,286047002.8,N
1696399895.1,286047001.5,N
1696399915.9,286047002.1,N
1696399935.7,286047002.6,N
1696399955.5,286047004.3,N
1696399975.4,286047004.2,N
1696399995.2,286047001.4,N
1696400015.0,286047004.0,N
1696400016.0,286047004.0,N
1696400035.8,286047001.4,N
1696400055.6,286047003.9,N
1696400075.5,286047004.1,N
1696400095.3,286047004.1,N
1696400115.1,286047002.9,N
1696400135.9,286047006.0,Y
1696400155.7,286047004.4,P
1696400175.6,286047001.7,N
1696400195.4,286047004.3,P
1696400215.2,286047001.3,N
1696400235.1,286047001.4,N
1696400236.0,286047001.4,N
1696400255.8,286047001.5,N
1696400275.6,286047002.0,N
1696400295.5,286047003.1,N
1696400315.3,286047004.4,Y
1696400335.2,286047001.2,P
1696400355.9,286046998.2,P
1696400375.7,286047000.3,N
1696400395.6,286047000.2,N
1696400415.4,286047002.8,N
1696400435.2,286046999.9,N
1696400455.1,286047000.2,N
1696400456.0,286047000.2,N
1696400475.8,286047002.7,N
1696400495.7,286047001.6,N
1696400515.5,286047001.6,N
1696400535.3,286047001.6,N
1696400555.2,286047001.7,N
1696400575.0,286047001.4,N
1696400575.9,286047001.4,N
1696400595.7,286047001.3,N
1696400615.6,286047006.0,Y
1696400635.4,286047003.9,P
1696400655.3,286047003.5,N
1696400675.1,286047003.9,P
1696400676.0,286047003.9,Y
1696400695.8,286047000.2,P
1696400715.7,286047002.8,N
1696400735.5,286046998.4,N
1696400755.4,286047002.8,N
1696400775.2,286046999.7,N
1696400795.0,286046999.7,N
1696400795.9,286046999.7,N
1696400815.8,286047000.5,N
1696400835.6,286047000.4,N
1696400855.4,286047000.7,N
1696400875.3,286047001.1,N
1696400895.1,286047000.6,N
1696400915.9,286047011.9,Y
1696400935.7,286047000.7,P
1696400955.5,286047000.9,P
1696400975.4,286047000.1,N
1696400995.2,286047002.4,Y
1696401015.0,286047000.7,P
1696401015.9,286047000.7,P
1696401035.8,286047001.1,P
1696401055.6,286047001.0,Y
1696401075.5,286047000.4,P
1696401095.3,286047000.5,N
1696401115.1,286047000.2,N
1696401135.9,286047000.6,N
1696401155.7,286047000.9,Y
1696401175.6,286047000.2,P
1696401195.4,286047000.4,N
1696401215.2,286047000.5,P
1696401235.1,286047000.1,N
1696401236.0,286047000.1,N
1696401255.8,286047000.2,N
1696401275.6,286047000.2,N
1696401295.5,286047000.4,N
1696401315.3,286047000.6,Y
1696401335.2,286046999.8,P
1696401355.9,286047002.8,P
1696401375.7,286047002.0,N
1696401395.6,286047002.6,N
1696401415.4,286047001.6,N
1696401435.3,286047001.7,N
1696401455.1,286047003.2,Y
1696401456.0,286047003.2,P
1696401475.8,286047002.4,N
1696401495.7,286046999.7,N
1696401515.5,286047002.8,N
1696401535.3,286047002.2,N
1696401555.2,286047002.0,N
1696401575.0,286047002.2,N
1696401575.9,286047002.2,N
1696401595.8,286047000.1,N
1696401615.6,286047002.8,N
1696401635.4,286047002.6,N
1696401655.3,286047002.1,N
1696401675.1,286047002.5,N
1696401695.9,286047004.0,Y
1696401715.7,286047004.3,P
1696401735.5,286047002.8,N
1696401755.4,286047001.6,N
1696401775.2,286047001.5,N
1696401795.1,286047002.2,N
1696401796.0,286047002.2,N
1696401815.8,286047002.5,N
1696401835.6,286047002.8,Y
1696401855.5,286046997.0,P
1696401875.3,286046996.6,N
1696401895.1,286046996.6,N
1696401915.9,286046999.2,N
1696401935.7,286046998.7,N
1696401955.6,286046999.4,N
1696401975.4,286046997.1,N
1696401995.2,286046997.3,N
1696402015.1,286046995.0,N
1696402016.0,286046995.0,N
1696402035.8,286046997.7,N
1696402055.6,286046997.5,N
1696402075.5,286046997.9,N
1696402095.3,286046997.4,N
1696402115.2,286046997.8,N
1696402135.9,286046996.5,N
1696402155.7,286046996.6,N
1696402175.6,286046996.6,N
1696402195.4,286046997.4,N
1696402215.2,286046997.7,N
1696402235.1,286046997.3,N
1696402236.0,286046997.3,N
1696402255.8,286046998.8,N
1696402275.7,286046997.0,N
1696402295.5,286046999.2,N
1696402315.3,286046997.2,N
1696402335.2,286046996.7,N
1696402355.0,286046997.9,N
1696402355.9,286046997.9,N
1696402375.7,286046996.5,N
1696402395.6,286046997.3,N
1696402415.4,286046998.0,N
1696402435.3,286046997.2,N
1696402455.1,286046999.6,N
1696402456.0,286046999.6,N
1696402475.8,286046995.3,Y
1696402495.7,286046999.3,P
1696402515.5,286046998.8,N
1696402535.4,286046999.0,N
1696402555.2,286046998.7,N
1696402575.0,286046998.1,Y
1696402575.9,286046998.1,P
1696402595.8,286047000.9,P
1696402615.6,286047000.3,N
1696402635.4,286047000.6,N
1696402655.3,286046998.4,N
1696402675.1,286046998.8,N
1696402695.9,286046999.0,N
1696402715.7,286046999.4,N
1696402735.5,286046997.3,N
1696402755.4,286046999.6,N
1696402775.2,286046997.0,N
1696402795.0,286046999.3,N
1696402795.9,286046999.3,N
